This demonstration page uses our WeatherBlox Daily Observations layout. Learn more.

Left ArrowRight Arrow

53.62937, 11.41316

Hourly Observations for April 2, 2018

Temp ( °F °C ) Dew Point ( °F °C ) Humidity (%) Winds ( mph kmh ) Pressure ( in mb ) Visibility ( mi km ) Precip ( " mm )
6:50 am 06:50 Mostly Sunny 30 -1 30 -1 100 100 W 3 6 29.83 1010 4 6 N/A
7:20 am 07:20 Partly Cloudy 30 -1 30 -1 100 100 W 5 7 29.83 1010 4 7 N/A
7:50 am 07:50 Partly Cloudy 30 -1 30 -1 100 100 W 5 7 29.83 1010 5 8 N/A
8:20 am 08:20 Mostly Sunny 32 0 32 0 100 100 W 5 7 29.83 1010 7 11 N/A
8:50 am 08:50 Mostly Sunny 34 1 32 0 93 93 W 5 7 29.83 1010 7 11 N/A
9:20 am 09:20 Mostly Sunny 36 2 32 0 87 87 W 6 9 29.83 1010 7 11 N/A
9:50 am 09:50 Mostly Sunny 37 3 32 0 81 81 W 6 9 29.83 1010 7 11 N/A
10:20 am 10:20 Mostly Sunny 37 3 32 0 81 81 W 8 13 29.85 1011 7 11 N/A
10:50 am 10:50 Mostly Sunny 39 4 30 -1 70 70 W 8 13 29.85 1011 7 11 N/A
11:20 am 11:20 Partly Cloudy 39 4 30 -1 70 70 WSW 8 13 29.85 1011 30 48 N/A
11:50 am 11:50 Partly Cloudy 39 4 30 -1 70 70 WSW 7 11 29.83 1010 30 48 N/A
12:20 pm 12:20 Partly Cloudy 41 5 30 -1 66 66 WSW 9 15 29.83 1010 30 48 N/A
12:50 pm 12:50 Mostly Sunny 43 6 30 -1 61 61 WSW 7 11 29.83 1010 30 48 N/A
1:20 pm 13:20 Mostly Sunny 45 7 32 0 61 61 SW 7 11 29.83 1010 30 48 N/A
1:50 pm 13:50 Mostly Sunny 45 7 30 -1 57 57 WSW 8 13 29.83 1010 30 48 N/A
2:20 pm 14:20 Mostly Sunny 45 7 28 -2 53 53 SSW 7 11 29.80 1009 30 48 N/A
2:50 pm 14:50 Partly Cloudy 45 7 28 -2 53 53 WSW 6 9 29.80 1009 30 48 N/A
3:20 pm 15:20 Partly Cloudy 45 7 28 -2 53 53 SW 5 7 29.80 1009 30 48 N/A
3:50 pm 15:50 Partly Cloudy 46 8 30 -1 53 53 S 8 13 29.77 1008 30 48 N/A
4:20 pm 16:20 Partly Cloudy 46 8 30 -1 53 53 S 7 11 29.77 1008 30 48 N/A
4:50 pm 16:50 Partly Cloudy 46 8 30 -1 53 53 SSE 7 11 29.77 1008 30 48 N/A
5:20 pm 17:20 Mostly Cloudy 46 8 30 -1 53 53 SSE 3 6 29.77 1008 30 48 N/A
5:50 pm 17:50 Mostly Cloudy 46 8 30 -1 53 53 SSE 5 7 29.74 1007 30 48 N/A
6:20 pm 18:20 Mostly Cloudy 46 8 30 -1 53 53 SE 7 11 29.74 1007 30 48 N/A
6:50 pm 18:50 Mostly Sunny 46 8 32 0 57 57 ESE 3 6 29.74 1007 7 11 N/A
7:20 pm 19:20 Mostly Cloudy 45 7 32 0 61 61 ESE 5 7 29.74 1007 30 48 N/A
7:50 pm 19:50 Mostly Cloudy 45 7 32 0 61 61 E 6 9 29.71 1006 30 48 N/A
8:20 pm 20:20 Mostly Cloudy 43 6 32 0 66 66 E 6 9 29.71 1006 30 48 N/A
8:50 pm 20:50 Mostly Cloudy 41 5 32 0 70 70 ESE 5 7 29.71 1006 30 48 N/A

Powered by AerisWeather